Location: Sternwarte ZA, Rosenfeld-Brittheim
(48.2889°N, 8.6789°E)
Time: 06:19:11
(UTC+02:00)

ISS - Pass Details

Date: 19 July 2018
Orbit: 402 x 408 km, 51.6° (Epoch: 23 July)

Event Time Altitude Azimuth Distance (km) Brightness Sun altitude
Rises 23:00:10 0° 222° (SW) 2,311 -0.1 -13.1°
Reaches altitude 10° 23:02:20 10° 214° (SSW) 1,456 -1.2 -13.3°
Maximum altitude 23:05:21 35° 146° (SE) 669 -3.3 -13.6°
Drops below altitude 10° 23:08:24 10° 78° (ENE) 1,467 -1.2 -13.9°
Sets 23:10:35 0° 70° (ENE) 2,332 -0.1 -14.1°
